Location: Kosice
(0.0000°N, 21.2500°E)
Time: 19:02:08
(UTC+01:00)

S3M - Pass Details

Date: 24 January 2021
Orbit: 949 x 1004 km, 83.0° (Epoch: 01 March)

Event Time Altitude Azimuth Distance (km) Brightness Sun altitude
Exits shadow 19:23:01 37° 33° (NNE) 1,439 4.5 -22.6°
Maximum altitude 19:25:09 54° 87° (E) 1,149 4.0 -23.1°
Drops below altitude 10° 19:31:11 10° 163° (SSE) 2,712 6.4 -24.5°
Sets 19:33:45 0° 168° (SSE) 3,670 7.1 -25.1°
